F8BJE-13 Weather Reports


Display with metric or nautical units.
time (UTC)temp
F
wind
direction
speed
MPH
gust
MPH
rain 1hr
in
rain 24hr
in
rain mn
in
humidity
%
barometer
mb
20260507012737 47 0 0.0 0.0 0.00 0.66 0.00 99 1013.4
20260507005736 47 0 0.0 0.0 0.00 0.66 0.00 99 1013.5
20260507002736 47 0 0.0 0.0 0.00 0.66 0.00 99 1013.4
20260506235736 48 0 0.0 0.0 0.00 0.66 0.00 99 1013.4
20260506232735 48 181 0.0 0.0 0.00 0.66 0.00 99 1013.3
20260506225736 48 160 0.0 1.0 0.00 0.66 0.00 99 1013.2
20260506222736 48 0 0.0 0.0 0.00 0.66 0.00 99 1013.1
20260506215736 48 177 0.0 2.0 0.01 0.66 0.66 99 1012.8
20260506212736 48 181 0.0 2.0 0.01 0.66 0.66 99 1012.7
20260506205737 48 181 0.0 0.0 0.01 0.64 0.64 99 1012.6
20260506202736 48 140 0.0 2.0 0.01 0.64 0.64 98 1012.5
20260506195735 48 141 0.0 3.0 0.00 0.63 0.63 98 1012.2
20260506192736 48 326 0.0 3.0 0.00 0.63 0.63 97 1011.7
20260506185736 48 346 0.0 3.0 0.01 0.63 0.63 97 1011.4
20260506182735 48 319 0.0 3.0 0.03 0.63 0.63 96 1011.1
20260506175735 48 324 0.0 4.0 0.03 0.62 0.62 96 1010.8
20260506172735 48 7 0.0 2.0 0.02 0.60 0.60 97 1010.6
20260506165737 48 302 0.0 3.0 0.01 0.59 0.59 97 1010.3
20260506162736 48 337 0.0 2.0 0.03 0.57 0.57 96 1010.4
20260506155735 47 311 0.0 3.0 0.04 0.57 0.57 95 1010.4
20260506152736 47 219 0.0 3.0 0.14 0.54 0.54 94 1010.2
20260506145735 48 297 0.0 2.0 0.31 0.53 0.53 91 1009.9
20260506142736 49 260 1.0 3.0 0.20 0.40 0.40 85 1010.1
20260506135736 54 247 3.0 4.0 0.01 0.21 0.21 82 1009.5
20260506132735 53 305 3.0 4.0 0.00 0.20 0.20 83 1009.8
20260506125735 53 268 0.0 5.0 0.01 0.21 0.20 85 1009.5
20260506122735 52 138 0.0 8.0 0.01 0.24 0.20 86 1009.6
20260506115736 52 19 2.0 4.0 0.02 0.23 0.18 88 1009.5
20260506112737 51 268 0.0 5.0 0.03 0.23 0.18 88 1009.5
20260506105736 51 332 4.0 6.0 0.03 0.21 0.16 90 1009.6
20260506102737 52 242 1.0 3.0 0.03 0.20 0.15 90 1009.5
20260506095735 51 312 3.0 4.0 0.02 0.17 0.12 90 1009.4
20260506092736 51 214 1.0 3.0 0.05 0.16 0.11 91 1009.1
20260506085735 50 165 0.0 3.0 0.09 0.15 0.10 90 1009.0
20260506082735 50 194 0.0 3.0 0.05 0.11 0.05 89 1008.6
20260506072735 51 159 0.0 2.0 0.00 0.05 0.00 86 1008.1
20260506042735 49 142 0.0 2.0 0.00 0.08 0.00 94 1007.4
20260506035735 49 214 0.0 1.0 0.00 0.08 0.00 93 1007.4
20260506032736 50 285 0.0 2.0 0.00 0.09 0.00 92 1007.4
20260506025735 50 239 0.0 2.0 0.00 0.09 0.00 91 1007.9
20260506022736 50 125 0.0 1.0 0.00 0.12 0.00 90 1008.0
20260506015736 50 342 0.0 2.0 0.00 0.15 0.00 86 1008.2